Regional Weather Roundup
Issued by NWS Memphis, TN

Home | Current Version | Previous Version | Text Only | Print | Product List | Glossary On
Versions: 1 2 3 4 5 6 7 8 9 10 11 12 13 14 15 16 17 18 19 20 21 22 23 24 25 26 27 28 29 30 31 32 33 34 35 36 37 38 39 40 41 42 43 44 45 46 47 48 49 50
000
ASUS44 KMEG 300610
RWRMEG
MEMPHIS CWA HOURLY WEATHER ROUNDUP
NATIONAL WEATHER SERVICE MEMPHIS TN
100 AM CDT SAT MAY 30 2015

...WEST TENNESSEE...

CITY           SKY/WX    TMP DP  RH WIND       PRES   REMARKS
MEMPHIS INTL   MOCLDY    75  68  78 S13       30.00S
6HR MIN TEMP:  75; 6HR MAX TEMP:  78;

NWS MEMPHIS      N/A     74 N/A N/A MISG        N/A
JACKSON        MOCLDY    75  67  76 S9        30.02F
6HR MIN TEMP:  72; 6HR MAX TEMP:  81;

LEXINGTON      CLEAR     72  66  83 SE3       30.05S
DYERSBURG      MOCLDY    75  57  53 S6        30.01S
6HR MIN TEMP:  73; 6HR MAX TEMP:  81;

PARIS          CLEAR     70  66  88 S9        30.04S


...EASTERN ARKANSAS...

CITY           SKY/WX    TMP DP  RH WIND       PRES   REMARKS
JONESBORO      MOCLDY    73  69  87 S10       29.96S
6HR MIN TEMP:  72; 6HR MAX TEMP:  76;

WEST MEMPHIS   PTCLDY    74  71  91 S15       29.97F
6HR MIN TEMP:  73; 6HR MAX TEMP:  76;

BATESVILLE     CLOUDY    68  66  94 E7        29.97R
6HR MIN TEMP:  66; 6HR MAX TEMP:  82; 6HR PCP:  0.85;

NEWPORT        RAIN      70  70 100 SW14G24   29.99R FOG
6HR MIN TEMP:  70; 6HR MAX TEMP:  78; 6HR PCP:  0.20;

WALNUT RIDGE   CLOUDY    73  66  78 S12       29.96S
6HR MIN TEMP:  73; 6HR MAX TEMP:  79;

BLYTHEVILLE    PTCLDY    75  70  84 S14       29.99S
6HR MIN TEMP:  74; 6HR MAX TEMP:  80;

SEARCY         RAIN      69  68  96 SE5       29.96F
6HR MIN TEMP:  68; 6HR MAX TEMP:  79; 6HR PCP:  1.46;

STUTTGART      CLOUDY    70  66  88 SW9       29.99R
6HR MIN TEMP:  70; 6HR MAX TEMP:  82; 6HR PCP:  0.10;

PINE BLUFF     LGT RAIN  70  67  90 VRB3      29.97R
6HR MIN TEMP:  69; 6HR MAX TEMP:  83; 6HR PCP:  0.15;

MONTICELLO     LGT RAIN  68  66  93 S10       29.97F
6HR MIN TEMP:  68; 6HR MAX TEMP:  84; 6HR PCP:  0.03;



...NORTH MISSISSIPPI...

CITY           SKY/WX    TMP DP  RH WIND       PRES   REMARKS
TUPELO         MOCLDY    72  67  84 S5        30.06S
6HR MIN TEMP:  71; 6HR MAX TEMP:  79;

OXFORD         PTCLDY    72  66  83 S9G17     30.05S
OLIVE BRANCH   CLEAR     72  72 100 S9        30.01F
TUNICA         PTCLDY    73  68  83 S14       29.99F HAZE
CLARKSDALE       N/A     73  73 100 CALM      29.99F
CORINTH        MOCLDY    72  68  88 S5        30.05S
GREENWOOD      CLOUDY    75  68  78 S15       30.03F
6HR MIN TEMP:  74; 6HR MAX TEMP:  80;

COLUMBUS       PTCLDY    72  69  93 SE7       30.07S
6HR MIN TEMP:  71; 6HR MAX TEMP:  82;

STARKVILLE     FAIR      70  66  88 SE6       30.07S
GOLDEN TRIANGL PTCLDY    72  66  83 S9        30.06F
6HR MIN TEMP:  72; 6HR MAX TEMP:  81;



...SOUTHEAST MISSOURI...

CITY           SKY/WX    TMP DP  RH WIND       PRES   REMARKS
WEST PLAINS    RAIN      66  64  93 NE3       29.99F
6HR MIN TEMP:  66; 6HR MAX TEMP:  73; 6HR PCP:  0.52;

POPLAR BLUFF   MOCLDY    72  67  84 SE6       29.96F
6HR MIN TEMP:  72; 6HR MAX TEMP:  79;

CAPE GIRARDEAU MOCLDY    73  70  90 SE6       29.99S
6HR MIN TEMP:  73; 6HR MAX TEMP:  80;



...NORTHWEST ALABAMA...

CITY           SKY/WX    TMP DP  RH WIND       PRES   REMARKS
MUSCLE SHOALS  CLEAR     68  65  90 SE3       30.09F
6HR MIN TEMP:  68; 6HR MAX TEMP:  81; 6HR PCP:  0.02;



...MIDDLE TENNESSEE...

CITY           SKY/WX    TMP DP  RH WIND       PRES   REMARKS
NASHVILLE      CLOUDY    72  66  81 S7        30.08F
6HR MIN TEMP:  72; 6HR MAX TEMP:  75;

CLARKSVILLE    CLEAR     71  66  84 S6        30.05F
6HR MIN TEMP:  71; 6HR MAX TEMP:  80;

COLUMBIA       CLEAR     70  66  88 CALM      30.07F


...WESTERN KENTUCKY...

CITY           SKY/WX    TMP DP  RH WIND       PRES   REMARKS
PADUCAH        PTCLDY    75  68  78 SE6       30.00S
6HR MIN TEMP:  73; 6HR MAX TEMP:  82;

FORT CAMPBELL  CLEAR     72  67  84 S8        30.05F
6HR MIN TEMP:  72; 6HR MAX TEMP:  80;



...CENTRAL ARKANSAS...

CITY           SKY/WX    TMP DP  RH WIND       PRES   REMARKS
LITTLE ROCK    LGT RAIN  69  66  90 S7        29.94F FOG
6HR MIN TEMP:  68; 6HR MAX TEMP:  84; 6HR PCP:  1.45;



SKY/WX REPORTED AS FAIR MEANS FEW OR NO CLOUDS BELOW
12 THOUSAND FEET.




USA.gov is the U.S. government's official web portal to all federal, state and local government web resources and services.